Regional Weather Roundup
Issued by NWS Kansas City/Pleasant Hill, MO

Home | Current Version | Previous Version | Text Only | Print | Product List | Glossary On
Versions: 1 2 3 4 5 6 7 8 9 10 11 12 13 14 15 16 17 18 19 20 21 22 23 24 25 26 27
000
ASUS43 KEAX 251310
RWREAX

WEATHER ROUNDUP FOR EASTERN KANSAS AND NORTHWEST MISSOURI
NATIONAL WEATHER SERVICE KANSAS CITY/PLEASANT HILL MO
800 AM CDT TUE JUL 25 2017

KSZ040-057-103>105-MOZ028-029-037-043-251400-
...KANSAS CITY METROPOLITAN AREA...

CITY           SKY/WX    TMP DP  RH WIND       PRES   REMARKS
K.C. INTL      MOSUNNY   76  67  73 SE10      30.07S
K.C. DOWNTOWN  SUNNY     77  67  71 SE5       30.07R
LEES SUMMIT    MOSUNNY   75  68  78 SE7       30.09R
OLATHE - IXD   SUNNY     75  68  78 SE8       30.08R
OLATHE - OJC   SUNNY     73  68  84 SE8       30.08R
LAWRENCE       SUNNY     73  70  90 E5        30.06R

$$

MOZ001>008-011>017-020>025-030>033-038>040-044>046-053-054-251400-
...NORTHERN AND CENTRAL MISSOURI...

CITY           SKY/WX    TMP DP  RH WIND       PRES   REMARKS
ST. JOSEPH     SUNNY     75  69  81 S10       30.06R
WARRENSBURG    SUNNY     72  66  83 E5        30.08S
WHITEMAN AFB   SUNNY     71  71 100 SE7       30.08R
CLINTON        MOSUNNY   73  68  83 E5        30.09R
SEDALIA        SUNNY     72  71  97 SE7       30.11R
WARSAW         NOT AVBL
CHILLICOTHE      N/A     72  69  90 SE6       30.11R
KIRKSVILLE     SUNNY     70  66  87 SE8       30.13R

$$

MOZ041-047>049-056>058-063>065-088>090-097-251400-
...EASTERN AND SOUTHERN MISSOURI...

CITY           SKY/WX    TMP DP  RH WIND       PRES   REMARKS
ST. LOUIS INTL MOSUNNY   76  66  71 E9        30.11R
SPIRIT OF STL  MOSUNNY   75  68  78 E8        30.09R
COLUMBIA       SUNNY     72  69  90 E9        30.10S
JEFFERSON CITY SUNNY     73  71  93 CALM      30.09R
ROLLA          SUNNY     72  69  90 E7        30.09S
OSAGE BEACH    SUNNY     72  68  87 NE5       30.10S
SPRINGFIELD    SUNNY     76  71  85 S3        30.09S
BRANSON        MOSUNNY   81  72  74 CALM      30.12R
JOPLIN         SUNNY     80  75  84 S6        30.09R
WEST PLAINS    SUNNY     75  70  84 CALM      30.11R

$$

IAZ060-094-KSZ022-034>040-054-083-096-NEZ052-066-093-251400-
...KANSAS...SOUTHEAST NEBRASKA AND IOWA...

CITY           SKY/WX    TMP DP  RH WIND       PRES   REMARKS
TOPEKA         SUNNY     75  71  87 SE3       30.06R
MANHATTAN      SUNNY     77  73  87 CALM      30.04R
EMPORIA        SUNNY     75  72  90 SE7       30.06R
CHANUTE        SUNNY     77  73  87 SE5       30.07R
WICHITA        MOSUNNY   77  71  82 S8        30.06R
OMAHA          SUNNY     76  66  71 S17       30.02R
LINCOLN        SUNNY     74  70  87 S12       30.01S
FALLS CITY     SUNNY     72  68  87 S9        30.04R
DES MOINES     MOSUNNY   71  66  84 SE12      30.09R

$$





USA.gov is the U.S. government's official web portal to all federal, state and local government web resources and services.